Weather Roundup
Issued by NWS Chicago, IL

Home | Current Version | Previous Version | Graphics & Text | Print | Product List | Glossary On
Versions: 1 2 3 4 5 6 7 8 9 10 11 12 13 14 15 16 17 18 19 20 21 22 23 24 25 26 27 28 29 30 31 32 33 34 35 36 37 38 39 40 41 42 43 44 45 46 47 48 49 50
612
NZUS59 KLOT 300408
HRRLOT

CHICAGO AREA WEATHER ROUNDUP
NATIONAL WEATHER SERVICE CHICAGO/ROMEOVILLE IL
1100 PM CDT WED MAR 29 2017

NOTE: "FAIR" INDICATES FEW OR NO CLOUDS BELOW 12,000 FEET WITH NO
SIGNIFICANT WEATHER AND/OR OBSTRUCTIONS TO VISIBILITY.

* THESE STATIONS ARE NOT UNDER NWS QUALITY CONTROL. THEY ALSO MAY NOT
  REPORT WEATHER SUCH AS PRECIPITATION OR FOG.

ILZ005-006-012>014-019>023-300500-
NORTHEAST ILLINOIS

CITY           SKY/WX    TMP DP  RH WIND       PRES   REMARKS
OHARE          LGT RAIN  45  38  76 E12       30.04F
MIDWAY         LGT RAIN  46  39  76 NE18G28   30.04F
AURORA         LGT RAIN  45  38  76 NE18G31   30.00F
LANSING*       DRIZZLE   46  39  76 E10G17    30.02F
JOLIET*        RAIN      46  41  82 E12G17    30.01F
WAUKEGAN       LGT RAIN  41  39  93 NE15G26   30.07F
DUPAGE AIRPORT CLOUDY    43  41  93 NE16      30.02F
WHEELING       CLOUDY    43  39  86 E12       30.07F
KANKAKEE*      CLOUDY    48  38  66 E23G29    29.97F
MORRIS*        LGT RAIN  46  41  84 E13G18    29.99F
LEWIS AIRPORT* CLOUDY    44  40  88 E16G24    30.00F
NORTHERLY ISL    N/A     41  38  89 NE13        N/A
$$

WIZ051-052-058>065-066-070>072-300500-
SOUTHEAST WISCONSIN

CITY           SKY/WX    TMP DP  RH WIND       PRES   REMARKS
MILWAUKEE      CLOUDY    38  35  89 N15       30.13S
KENOSHA*       CLOUDY    42  38  85 NE21G29   30.09F
RACINE*        LGT RAIN  40  36  86 NE15      30.12F
WAUKESHA       DRIZZLE   36  34  93 NE12      30.13F
WEST BEND      LGT RAIN  36  34  93 NE8       30.16F
$$

INZ001>003-010>013-019-020-300500-
NORTHWEST INDIANA

CITY           SKY/WX    TMP DP  RH WIND       PRES   REMARKS
GARY*          LGT RAIN  45  38  78 NE15      30.03F
MICHIGAN CITY* NOT AVBL
RENSSELAER*    NOT AVBL
VALPARAISO     CLOUDY    47  36  65 E17       30.04F
$$

LMZ740>746-300500-
SOUTHERN LAKE MICHIGAN

STATION/POSITION TIME  SKY/WX   TEMP WIND        PRES    VSBY
                                AIR  DIR/SP/G
                 (UTC)          (F)  (DEG/KT/KT) (MB)    (MI)
HARRISON CRIB    0340            43   60/ 19/ 20   N/A
BURNHAM HARBOR   0400            42   40/ 10/ 13   N/A
CALUMET HARBOR   0342            42   40/ 14/ 18 1016.7F
BURNS HARBOR     0340            45   80/ 12/ 14 1018.3S
MICHIGAN CITY    0340            47   70/ 13/ 14   N/A
$$

ABBREVIATIONS USED IN REMARKS
   TC - TEMPERATURE IN CELSIUS
  WCI - WIND CHILL INDEX
   HX - HEAT INDEX
  VSB - VISIBILITY
$$




USA.gov is the U.S. government's official web portal to all federal, state and local government web resources and services.